Flag for Germany Weather past 2 weeks in Lage, North Rhine-Westphalia, Germany

51 °F

Passing clouds.

Feels Like: 51 °F
Forecast: 34 / 48 °F
Wind: 2 mph from Northeast

Location: Bad Lippspringe

Current Time: Oct 10, 2015 at 1:07:28 PM

Latest Report: Oct 10, 2015 at 12:00 PM

Visibility: 4 mi

Pressure: 30.17 "Hg

Humidity: 77%

Dew point: 44 °F

Location of LageLocation

Historic Weather in Lage — Graph


Lage temperature yesterday

Maximum temperature yesterday: 56 °F (at 5:00 PM)
Minimum temperature yesterday: 52 °F (at 11:00 PM)
Average temperature yesterday: 54 °F

Past Weeks' High & Low Weather Summary

High70 °F (Oct 3, 5:00 PM)100% (Sep 27, 3:00 AM)30.66 "Hg (Sep 27, 3:00 AM)
Low37 °F (Oct 2, 8:00 AM)43% (Oct 2, 4:00 PM)29.64 "Hg (Oct 6, 5:00 PM)
Average54 °F82%30.22 "Hg
* Reported Sep 25 12:00 Noon — Oct 10 12:00 Noon, Lage, Weather by CustomWeather, © 2015

Note: Actual official high and low records may vary slightly from our data, if they occured in-between our weather recording intervals... More about our weather records


Lage weather history for previous 24 hours

Time TempWeatherWind HumidityBarometerVisibility
12:00 PM
Sat, Oct 10
51 °FPassing clouds.2 mph77%30.17 "Hg4 mi
11:00 AM49 °FFog.3 mph82%30.18 "Hg4 mi
10:00 AM48 °FFog.5 mph86%30.19 "Hg3 mi
9:00 AM48 °FFog.2 mph89%30.18 "Hg3 mi
8:00 AM47 °FFog.2 mph90%30.18 "Hg4 mi
7:00 AM49 °FFog.2 mph94%30.18 "Hg2 mi
5:00 AM49 °FFog.2 mph95%30.18 "Hg2 mi
4:00 AM49 °FFog.3 mph92%30.19 "Hg3 mi
3:00 AM50 °FFog.2 mph90%30.18 "Hg3 mi
2:00 AM51 °FFog.2 mph92%30.18 "Hg3 mi
1:00 AM51 °FFog.3 mph94%30.18 "Hg2 mi
12:00 AM51 °FFog.3 mph95%30.19 "Hg3 mi
11:00 PM
Fri, Oct 9
52 °FLow clouds.3 mph94%30.19 "Hg6 mi
10:00 PM52 °FLow clouds.5 mph95%30.19 "Hg8 mi
9:00 PM53 °FLow clouds.3 mph94%30.18 "Hg17 mi
8:00 PM54 °FDrizzle. Overcast.3 mph93%30.17 "Hg10 mi
7:00 PM55 °FDrizzle. Overcast.3 mph92%30.16 "Hg14 mi
6:00 PM56 °FOvercast.3 mph91%30.15 "Hg18 mi
5:00 PM56 °FDrizzle. Overcast.2 mph94%30.15 "Hg17 mi
4:00 PM56 °FDrizzle. Low clouds.2 mph97%30.15 "Hg4 mi
3:00 PM56 °FLight freezing rain. Low clouds.2 mph97%30.15 "Hg4 mi
2:00 PM56 °FLight rain. Overcast.3 mph95%30.16 "Hg2 mi
1:00 PM56 °FLight freezing rain. Low clouds.2 mph93%30.16 "Hg4 mi
Weather by CustomWeather, © 2015

See weather overviewHow to use our weather pages